Regional Weather Roundup
Issued by NWS

Home | Current Version | Previous Version | Text Only | Print | Product List | Glossary On
Versions: 1 2 3 4 5 6 7 8 9 10 11 12 13 14 15 16 17 18 19 20 21 22 23 24 25 26 27
000
ASUS45 KBOU 031907
RWRCO

WEATHER ROUNDUP FOR COLORADO
NATIONAL WEATHER SERVICE DENVER/BOULDER CO
100 PM MDT TUE MAY 03 2016

NOTE: "FAIR" INDICATES FEW OR NO CLOUDS BELOW 12000 FEET WITH NO
SIGNIFICANT WEATHER AND/OR OBSTRUCTIONS TO VISIBILITY.

COZ001>005-013-030-031-032000-
...NORTHWEST COLORADO...

CITY           SKY/WX    TMP DP  RH WIND       PRES   REMARKS
CRAIG          FAIR      61  29  29 SW6       30.27F
HAYDEN         FAIR      55  25  30 CALM      30.28F
MEEKER         FAIR      63  24  22 MISG      30.26F
MOUNT WERNER   NOT AVBL
STEAMBOAT SPGS FAIR      57  26  29 CALM      30.28F
WALDEN         FAIR      52  23  32 NW6       30.34F
$$

COZ006>008-011-032000-
...WEST CENTRAL VALLEYS...

CITY           SKY/WX    TMP DP  RH WIND       PRES   REMARKS
GRAND JUNCTION FAIR      66  29  24 W3        30.20F
MONTROSE       FAIR      63  26  24 NW8       30.25F
EAGLE          NOT AVBL
RIFLE          FAIR      64  23  21 MISG      30.22F
DELTA          NOT AVBL
NUCLA          NOT AVBL
$$

COZ017>023-064>068-032000-
...SOUTHWEST COLORADO...

CITY           SKY/WX    TMP DP  RH WIND       PRES   REMARKS
DURANGO        FAIR      61  29  29 VRB6      30.23F
CORTEZ         FAIR      64  38  38 SW16      30.21F
PAGOSA SPRINGS FAIR      58  20  22 W3        30.26S
TELLURIDE      FAIR      55  18  23 N3        30.34S
WOLF CREEK PAS FAIR      37  10  32 NE6       30.45S
$$

COZ009-010-012-014-032>034-037-058>063-032000-
...CENTRAL COLORADO...

CITY           SKY/WX    TMP DP  RH WIND       PRES   REMARKS
ASPEN          FAIR      58  20  22 N9G18     30.27F
BUENA VISTA    FAIR      58   8  13 NE17G23   30.27F
COPPER MTN     NOT AVBL
BERTHOUD PASS  FAIR      28  19  69 CALM      30.46R
COTTONWOOD PAS FAIR      54   9  16 E6        30.35S
GUNNISON       FAIR      57  19  23 S6        30.29F
KREMMLING      FAIR      59  18  20 NW5       30.30F
LEADVILLE      FAIR      47   5  18 NW12G22   30.34S
MONARCH PASS   FAIR      36  21  55 MISG      30.53R
SALIDA         FAIR      60  12  15 CALM      30.34F
SUNLIGHT       FAIR      43  19  39 N6        30.46S
WILKERSON PASS FAIR      41  18  38 NE7       30.43S
$$

COZ069>075-032000-
...SAN LUIS VALLEY/SANGRE DE CRISTO MOUNTAINS...

CITY           SKY/WX    TMP DP  RH WIND       PRES   REMARKS
ALAMOSA        FAIR      57  18  21 VRB5G18   30.27S
LA VETA PASS   FAIR      46  23  39 CALM      30.37S
SAGUACHE       FAIR      59  10  14 N10G16    30.27F
$$

COZ035-036-038>040-032000-
...NORTHERN COLORADO FRONT RANGE...

CITY           SKY/WX    TMP DP  RH WIND       PRES   REMARKS
DENVER INTL AP FAIR      63  31  30 NW17      30.22F
DMNS CITY PARK   N/A     62  27  27 NE16G24   30.23F
AURORA         FAIR      60  31  32 N13G25    30.24F
FRONT RANGE AP PTSUNNY   59  32  36 NW20G28   30.23F
ERIE MUNI ARPT FAIR      64  29  27 N9G18     30.22F
BOULDER MUN AP FAIR      63  30  29 NE9       30.22F
CENTENNIAL     FAIR      59  29  31 N13G23    30.25F
BROOMFIELD     MOSUNNY   63  30  29 N14       30.25F
FORT COLLINS   FAIR      64  34  32 N14G20    30.23F
LONGMONT       FAIR      67  32  27 N13G22    30.23F
$$

COZ041-046-047-076>085-087-088-032000-
...PIKES PEAK/PALMER DIVIDE AND SOUTHERN FOOTHILLS...

CITY           SKY/WX    TMP DP  RH WIND       PRES   REMARKS
COLO. SPRINGS  FAIR      61  24  24 N23G31    30.25F
A. F. ACADEMY  FAIR      55  25  30 N15G29    30.26S
SCHRIEVER AFB  NOT AVBL
ELLICOTT       FAIR     N/A N/A N/A N26G33    30.22
FALCON         FAIR      56  26  31 MISG      30.28S
FORT CARSON    FAIR      63  25  23 N22G29    30.22F
LIMON          FAIR      60  36  40 N24G32    30.19F
MONUMENT HILL  FAIR      50  30  46 N18G24    30.29F
TRINIDAD       FAIR      61  28  28 N15G25    30.23F
$$

COZ042>045-048>051-090-091-032000-
...NORTHEAST COLORADO...

CITY           SKY/WX    TMP DP  RH WIND       PRES   REMARKS
GREELEY ARPT   FAIR      66  34  30 N17G23    30.20F
AKRON          FAIR      63  31  30 N18G28    30.16F
BURLINGTON     FAIR      61  34  36 N16G28    30.14F
WRAY           NOT AVBL
STERLING       FAIR      66  32  28 N16G22    30.14S
HOLYOKE        NOT AVBL
FORT MORGAN    FAIR      67  31  26 N18G29    30.18S
$$

COZ086-089-092>099-032000-
...SOUTHEAST COLORADO...

CITY           SKY/WX    TMP DP  RH WIND       PRES   REMARKS
PUEBLO         FAIR      68  24  19 N16G29    30.19F
LA JUNTA       FAIR      68  33  27 N22G35    30.17F
LAMAR          FAIR      66  35  31 N20G25    30.12F
SPRINGFIELD      N/A     62  33  33 N20G37    30.13S
$$




USA.gov is the U.S. government's official web portal to all federal, state and local government web resources and services.